Time,TemperatureF,DewpointF,PressureIn,WindDirection,WindDirectionDegrees,WindSpeedMPH,WindSpeedGustMPH,Humidity,HourlyPrecipIn,Conditions,Clouds,dailyrainin,SolarRadiationWatts/m^2,SoftwareType,DateUTC
2013-08-30 00:00:00,72.0,65.0,-100.00,SE,135,1.0,-999.0,81,-99.99,,,-99.99,0.000000,,2013-08-30 04:00:00,
2013-08-30 00:44:00,72.0,65.0,-100.00,SE,135,1.0,-999.0,81,-99.99,,,-99.99,0.000000,,2013-08-30 04:44:00,
2013-08-30 00:54:00,72.0,65.0,-100.00,SE,135,1.0,-999.0,81,-99.99,,,-99.99,0.000000,,2013-08-30 04:54:00,
2013-08-30 01:00:00,70.0,65.0,-100.00,SE,135,1.0,-999.0,84,-99.99,,,-99.99,0.000000,,2013-08-30 05:00:00,
2013-08-30 01:42:00,70.0,65.0,-100.00,SE,135,1.0,-999.0,84,-99.99,,,-99.99,0.000000,,2013-08-30 05:42:00,
2013-08-30 01:52:00,70.0,65.0,-100.00,SE,135,1.0,-999.0,84,-99.99,,,-99.99,0.000000,,2013-08-30 05:52:00,
2013-08-30 02:00:00,70.0,65.0,-100.00,SSE,157,2.0,-999.0,84,-99.99,,,-99.99,0.000000,,2013-08-30 06:00:00,
2013-08-30 02:42:00,70.0,65.0,-100.00,SSE,157,2.0,-999.0,84,-99.99,,,-99.99,0.000000,,2013-08-30 06:42:00,
2013-08-30 02:53:00,70.0,65.0,-100.00,SSE,157,2.0,-999.0,84,-99.99,,,-99.99,0.000000,,2013-08-30 06:53:00,
2013-08-30 03:00:00,71.0,65.0,-100.00,SSE,157,2.0,-999.0,82,-99.99,,,-99.99,0.000000,,2013-08-30 07:00:00,
2013-08-30 03:44:00,71.0,65.0,-100.00,SSE,157,2.0,-999.0,82,-99.99,,,-99.99,0.000000,,2013-08-30 07:44:00,
2013-08-30 03:53:00,71.0,65.0,-100.00,SSE,157,2.0,-999.0,82,-99.99,,,-99.99,0.000000,,2013-08-30 07:53:00,
2013-08-30 04:00:00,69.0,65.0,-100.00,SSE,157,1.0,-999.0,86,-99.99,,,-99.99,0.000000,,2013-08-30 08:00:00,
2013-08-30 04:43:00,69.0,65.0,-100.00,SSE,157,1.0,-999.0,86,-99.99,,,-99.99,0.000000,,2013-08-30 08:43:00,
2013-08-30 04:52:00,69.0,65.0,-100.00,SSE,157,1.0,-999.0,86,-99.99,,,-99.99,0.000000,,2013-08-30 08:52:00,
2013-08-30 05:00:00,66.0,63.0,-100.00,East,90,1.0,-999.0,90,-99.99,,,-99.99,0.000000,,2013-08-30 09:00:00,
2013-08-30 05:44:00,66.0,63.0,-100.00,East,90,1.0,-999.0,90,-99.99,,,-99.99,0.000000,,2013-08-30 09:44:00,
2013-08-30 05:53:00,66.0,63.0,-100.00,East,90,1.0,-999.0,90,-99.99,,,-99.99,0.000000,,2013-08-30 09:53:00,
2013-08-30 06:00:00,67.0,64.0,-100.00,SSE,157,2.0,-999.0,91,-99.99,,,-99.99,0.000000,,2013-08-30 10:00:00,
2013-08-30 06:43:00,67.0,64.0,-100.00,SSE,157,2.0,-999.0,91,-99.99,,,-99.99,0.000000,,2013-08-30 10:43:00,
2013-08-30 06:53:00,67.0,64.0,-100.00,SSE,157,2.0,-999.0,91,-99.99,,,-99.99,0.000000,,2013-08-30 10:53:00,
2013-08-30 07:00:00,67.0,64.0,-100.00,SSE,157,2.0,-999.0,91,-99.99,,,-99.99,0.000000,,2013-08-30 11:00:00,
2013-08-30 07:42:00,67.0,64.0,-100.00,SSE,157,2.0,-999.0,91,-99.99,,,-99.99,0.000000,,2013-08-30 11:42:00,
2013-08-30 07:52:00,67.0,64.0,-100.00,SSE,157,2.0,-999.0,91,-99.99,,,-99.99,0.000000,,2013-08-30 11:52:00,
2013-08-30 09:00:00,71.0,66.0,-100.00,SSW,202,3.0,-999.0,84,-99.99,,,-99.99,146.160004,,2013-08-30 13:00:00,
2013-08-30 09:42:00,71.0,66.0,-100.00,SSW,202,3.0,-999.0,84,-99.99,,,-99.99,146.160004,,2013-08-30 13:42:00,
2013-08-30 09:52:00,71.0,66.0,-100.00,SSW,202,3.0,-999.0,84,-99.99,,,-99.99,146.160004,,2013-08-30 13:52:00,
2013-08-30 11:00:00,79.0,66.0,-100.00,SSW,202,5.0,-999.0,64,-99.99,,,-99.99,439.640015,,2013-08-30 15:00:00,
2013-08-30 11:43:00,79.0,66.0,-100.00,SSW,202,5.0,-999.0,64,-99.99,,,-99.99,439.640015,,2013-08-30 15:43:00,
2013-08-30 11:55:00,79.0,66.0,-100.00,SSW,202,5.0,-999.0,64,-99.99,,,-99.99,439.640015,,2013-08-30 15:55:00,
2013-08-30 12:00:00,82.0,66.0,-100.00,SW,225,6.0,-999.0,58,-99.99,,,-99.99,556.799988,,2013-08-30 16:00:00,
2013-08-30 12:43:00,82.0,66.0,-100.00,SW,225,6.0,-999.0,58,-99.99,,,-99.99,556.799988,,2013-08-30 16:43:00,
2013-08-30 12:53:00,82.0,66.0,-100.00,SW,225,6.0,-999.0,58,-99.99,,,-99.99,556.799988,,2013-08-30 16:53:00,
2013-08-30 13:00:00,84.0,65.0,-100.00,SW,225,6.0,-999.0,53,-99.99,,,-99.99,639.159973,,2013-08-30 17:00:00,
2013-08-30 13:42:00,84.0,65.0,-100.00,SW,225,6.0,-999.0,53,-99.99,,,-99.99,639.159973,,2013-08-30 17:42:00,
2013-08-30 13:53:00,84.0,65.0,-100.00,SW,225,6.0,-999.0,53,-99.99,,,-99.99,639.159973,,2013-08-30 17:53:00,
2013-08-30 14:00:00,86.0,64.0,-100.00,SW,225,6.0,-999.0,48,-99.99,,,-99.99,700.640015,,2013-08-30 18:00:00,
2013-08-30 14:42:00,86.0,64.0,-100.00,SW,225,6.0,-999.0,48,-99.99,,,-99.99,700.640015,,2013-08-30 18:42:00,
2013-08-30 14:52:00,86.0,64.0,-100.00,SW,225,6.0,-999.0,48,-99.99,,,-99.99,700.640015,,2013-08-30 18:52:00,
2013-08-30 15:00:00,88.0,64.0,-100.00,SW,225,5.0,-999.0,44,-99.99,,,-99.99,690.200012,,2013-08-30 19:00:00,
2013-08-30 15:42:00,88.0,64.0,-100.00,SW,225,5.0,-999.0,44,-99.99,,,-99.99,690.200012,,2013-08-30 19:42:00,
2013-08-30 15:53:00,88.0,64.0,-100.00,SW,225,5.0,-999.0,44,-99.99,,,-99.99,690.200012,,2013-08-30 19:53:00,
2013-08-30 16:00:00,90.0,65.0,-100.00,SW,225,5.0,-999.0,44,-99.99,,,-99.99,641.479980,,2013-08-30 20:00:00,
2013-08-30 16:43:00,90.0,65.0,-100.00,SW,225,5.0,-999.0,44,-99.99,,,-99.99,641.479980,,2013-08-30 20:43:00,
2013-08-30 16:52:00,90.0,65.0,-100.00,SW,225,5.0,-999.0,44,-99.99,,,-99.99,641.479980,,2013-08-30 20:52:00,
2013-08-30 17:00:00,90.0,66.0,-100.00,WSW,247,6.0,-999.0,46,-99.99,,,-99.99,539.400024,,2013-08-30 21:00:00,
2013-08-30 17:44:00,90.0,66.0,-100.00,WSW,247,6.0,-999.0,46,-99.99,,,-99.99,539.400024,,2013-08-30 21:44:00,
2013-08-30 17:55:00,90.0,66.0,-100.00,WSW,247,6.0,-999.0,46,-99.99,,,-99.99,539.400024,,2013-08-30 21:55:00,
2013-08-30 18:00:00,89.0,67.0,-100.00,WSW,247,5.0,-999.0,48,-99.99,,,-99.99,372.359985,,2013-08-30 22:00:00,
2013-08-30 18:43:00,89.0,67.0,-100.00,WSW,247,5.0,-999.0,48,-99.99,,,-99.99,372.359985,,2013-08-30 22:43:00,
2013-08-30 18:54:00,89.0,67.0,-100.00,WSW,247,5.0,-999.0,48,-99.99,,,-99.99,372.359985,,2013-08-30 22:54:00,
2013-08-30 22:00:00,81.0,70.0,-100.00,South,180,3.0,-999.0,69,-99.99,,,-99.99,0.000000,,2013-08-31 02:00:00,
2013-08-30 22:42:00,81.0,70.0,-100.00,South,180,3.0,-999.0,69,-99.99,,,-99.99,0.000000,,2013-08-31 02:42:00,
2013-08-30 22:52:00,81.0,70.0,-100.00,South,180,3.0,-999.0,69,-99.99,,,-99.99,0.000000,,2013-08-31 02:52:00,
2013-08-30 23:00:00,79.0,70.0,-100.00,NW,315,4.0,-999.0,76,-99.99,,,-99.99,0.000000,,2013-08-31 03:00:00,
2013-08-30 23:45:00,79.0,70.0,-100.00,NW,315,4.0,-999.0,76,-99.99,,,-99.99,0.000000,,2013-08-31 03:45:00,
2013-08-30 23:54:00,79.0,70.0,-100.00,NW,315,4.0,-999.0,76,-99.99,,,-99.99,0.000000,,2013-08-31 03:54:00,